FW1302 Weather Reports


Display with metric or nautical units.
time (UTC)temp
F
wind
direction
speed
MPH
gust
MPH
rain 1hr
in
rain 24hr
in
rain mn
in
humidity
%
barometer
mb
20260507051316 59 225 12.0 17.0 0.00 0.00 0.00 75 1030.8
20260507050415 59 226 15.0 18.0 0.00 0.00 0.00 75 1030.7
20260507044418 60 225 17.0 24.0 0.00 0.00 0.00 74 1030.6
20260507043415 60 225 18.0 24.0 0.00 0.00 0.00 73 1030.4
20260507042417 61 224 13.0 17.0 0.00 0.00 0.00 72 1030.4
20260507041515 61 227 14.0 19.0 0.00 0.00 0.00 72 1030.3
20260507040516 61 225 14.0 18.0 0.00 0.00 0.00 72 1030.2
20260507035516 62 227 14.0 18.0 0.00 0.00 0.00 72 1030.0
20260507034614 62 237 14.0 20.0 0.00 0.00 0.00 71 1029.9
20260507033617 63 227 14.0 24.0 0.00 0.00 0.00 70 1029.9
20260507032615 63 226 11.0 14.0 0.00 0.00 0.00 70 1029.7
20260507031616 64 227 10.0 13.0 0.00 0.00 0.00 71 1029.6
20260507030714 64 225 11.0 15.0 0.00 0.00 0.00 70 1029.7
20260507025717 64 229 10.0 12.0 0.00 0.00 0.00 69 1029.7
20260507023715 65 220 9.0 12.0 0.00 0.00 0.00 68 1029.7
20260507022716 65 225 11.0 13.0 0.00 0.00 0.00 67 1029.7
20260507021717 65 225 10.0 12.0 0.00 0.00 0.00 66 1029.8
20260507020715 66 224 9.0 12.0 0.00 0.00 0.00 64 1029.9
20260507015715 66 225 11.0 16.0 0.00 0.00 0.00 64 1029.9
20260507014716 66 226 10.0 13.0 0.00 0.00 0.00 64 1029.9
20260507013715 66 225 13.0 16.0 0.00 0.00 0.00 63 1029.9
20260507011716 66 224 13.0 17.0 0.00 0.00 0.00 62 1029.7
20260507010718 66 227 12.0 16.0 0.00 0.00 0.00 62 1029.9
20260507005716 66 226 14.0 19.0 0.00 0.00 0.00 61 1029.7
20260507003716 66 222 15.0 21.0 0.00 0.00 0.00 60 1029.7
20260507002815 67 225 17.0 25.0 0.00 0.00 0.00 59 1029.5
20260507001816 67 221 15.0 23.0 0.00 0.00 0.00 58 1029.4
20260507000817 66 226 16.0 21.0 0.00 0.00 0.00 59 1029.6
20260507000718 66 220 19.0 23.0 0.00 0.00 0.00 59 1029.5
20260506235716 66 223 17.0 23.0 0.00 0.00 0.00 59 1029.4
20260506234717 66 229 16.0 21.0 0.00 0.00 0.00 59 1029.6
20260506233717 66 226 15.0 19.0 0.00 0.00 0.00 61 1029.5
20260506232716 66 227 14.0 19.0 0.00 0.00 0.00 61 1029.6
20260506231815 66 224 17.0 28.0 0.00 0.00 0.00 62 1029.6
20260506230815 66 227 15.0 19.0 0.00 0.00 0.00 62 1029.8
20260506225817 66 224 15.0 18.0 0.00 0.00 0.00 62 1029.7
20260506224915 66 223 16.0 22.0 0.00 0.00 0.00 62 1029.6
20260506223917 66 227 14.0 18.0 0.00 0.00 0.00 61 1029.8
20260506222917 66 225 18.0 26.0 0.00 0.00 0.00 63 1029.8
20260506221917 66 218 15.0 21.0 0.00 0.00 0.00 64 1029.7
20260506220916 66 226 14.0 21.0 0.00 0.00 0.00 63 1030.0
20260506215917 66 225 14.0 18.0 0.00 0.00 0.00 64 1029.9
20260506214916 66 230 15.0 19.0 0.00 0.00 0.00 64 1030.0
20260506213916 66 221 14.0 20.0 0.00 0.00 0.00 62 1030.1
20260506213015 66 218 13.0 22.0 0.00 0.00 0.00 63 1030.1
20260506212016 66 219 15.0 22.0 0.00 0.00 0.00 64 1030.3
20260506210115 65 226 11.0 15.0 0.00 0.00 0.00 67 1030.2
20260506205214 65 213 12.0 18.0 0.00 0.00 0.00 67 1030.1
20260506203215 65 218 14.0 18.0 0.00 0.00 0.00 67 1030.3
20260506202215 64 220 14.0 18.0 0.00 0.00 0.00 68 1030.3
20260506200215 64 212 12.0 17.0 0.00 0.00 0.00 69 1030.8
20260506194316 64 222 14.0 19.0 0.00 0.00 0.00 69 1030.8
20260506193316 63 224 10.0 14.0 0.00 0.00 0.00 71 1030.8
20260506192414 63 224 14.0 19.0 0.00 0.00 0.00 71 1030.6
20260506191416 63 227 13.0 18.0 0.00 0.00 0.00 72 1030.8
20260506190514 63 225 11.0 13.0 0.00 0.00 0.00 72 1030.8
20260506184516 63 229 14.0 18.0 0.00 0.00 0.00 73 1030.8
20260506183615 62 235 12.0 18.0 0.00 0.00 0.00 73 1030.7
20260506183517 62 225 15.0 22.0 0.00 0.00 0.00 74 1030.8
20260506181516 62 213 13.0 16.0 0.00 0.00 0.00 74 1030.9
20260506180515 62 227 11.0 17.0 0.00 0.00 0.00 75 1030.7
20260506175515 62 229 13.0 19.0 0.00 0.00 0.00 75 1030.5
20260506174614 61 232 12.0 17.0 0.00 0.00 0.00 76 1030.6
20260506173616 61 224 12.0 16.0 0.00 0.00 0.00 77 1030.8
20260506172616 60 224 11.0 17.0 0.00 0.00 0.00 78 1030.8
20260506171616 60 231 12.0 18.0 0.00 0.00 0.00 79 1030.7
20260506170616 60 218 9.0 12.0 0.00 0.00 0.00 79 1030.6
20260506165616 59 229 11.0 15.0 0.00 0.00 0.00 79 1030.5
20260506165517 59 226 13.0 17.0 0.00 0.00 0.00 78 1030.4
20260506164516 59 226 11.0 16.0 0.00 0.00 0.00 80 1030.2
20260506163614 59 205 10.0 14.0 0.00 0.00 0.00 80 1030.4
20260506162617 59 223 9.0 12.0 0.00 0.00 0.00 80 1030.3
20260506161615 59 234 10.0 13.0 0.00 0.00 0.00 81 1030.1
20260506155716 58 226 10.0 15.0 0.00 0.00 0.00 80 1030.6
20260506154714 58 224 13.0 19.0 0.00 0.00 0.00 81 1030.8
20260506153715 58 225 12.0 16.0 0.00 0.00 0.00 81 1030.8
20260506152814 58 226 14.0 20.0 0.00 0.00 0.00 81 1030.8
20260506151816 58 235 11.0 15.0 0.00 0.00 0.00 81 1030.7
20260506145914 58 222 11.0 18.0 0.00 0.00 0.00 80 1030.3
20260506144915 58 225 11.0 17.0 0.00 0.00 0.00 82 1030.0
20260506143914 58 222 10.0 15.0 0.00 0.00 0.00 82 1030.0
20260506142917 58 223 6.0 9.0 0.00 0.00 0.00 82 1029.9
20260506141915 58 222 7.0 11.0 0.00 0.00 0.00 82 1029.9
20260506140916 58 210 9.0 14.0 0.00 0.00 0.00 83 1029.8
20260506133918 58 225 9.0 13.0 0.00 0.00 0.00 83 1029.7
20260506133815 58 223 7.0 9.0 0.00 0.00 0.00 83 1029.6
20260506132816 57 209 4.0 8.0 0.00 0.00 0.00 83 1029.6
20260506131817 58 216 6.0 11.0 0.00 0.00 0.00 82 1029.5
20260506130815 58 217 9.0 14.0 0.00 0.00 0.00 82 1029.6
20260506125815 58 218 9.0 12.0 0.00 0.00 0.00 82 1029.5
20260506125716 58 218 9.0 12.0 0.00 0.00 0.00 82 1029.5
20260506124716 58 218 5.0 7.0 0.00 0.00 0.00 82 1029.6
20260506123716 58 217 8.0 11.0 0.00 0.00 0.00 82 1029.6
20260506122717 58 224 7.0 9.0 0.00 0.00 0.00 81 1029.5
20260506120714 59 221 7.0 12.0 0.00 0.00 0.00 81 1029.1
20260506115718 59 224 10.0 12.0 0.00 0.00 0.00 80 1029.2
20260506114715 59 225 9.0 12.0 0.00 0.00 0.00 80 1029.0
20260506113717 59 223 5.0 7.0 0.00 0.00 0.00 80 1028.9
20260506112814 59 225 7.0 9.0 0.00 0.00 0.00 80 1028.9
20260506111815 59 225 5.0 8.0 0.00 0.00 0.00 80 1028.9
20260506105914 60 225 8.0 11.0 0.00 0.00 0.00 79 1028.6
20260506104915 60 225 7.0 9.0 0.00 0.00 0.00 78 1028.4
20260506104014 60 225 7.0 11.0 0.00 0.00 0.00 77 1028.3
20260506103016 60 225 9.0 12.0 0.00 0.00 0.00 77 1028.1
20260506102114 60 226 8.0 10.0 0.00 0.00 0.00 77 1028.1
20260506101116 60 228 7.0 10.0 0.00 0.00 0.00 77 1028.1
20260506095213 60 216 6.0 11.0 0.00 0.00 0.00 76 1028.0
20260506094215 60 225 7.0 10.0 0.00 0.00 0.00 76 1028.0
20260506093216 61 230 6.0 7.0 0.00 0.00 0.00 75 1028.1
20260506092314 61 229 8.0 11.0 0.00 0.00 0.00 75 1027.9
20260506091314 61 224 7.0 11.0 0.00 0.00 0.00 75 1027.9
20260506090414 61 225 5.0 9.0 0.00 0.00 0.00 75 1027.9
20260506085416 61 228 7.0 8.0 0.00 0.00 0.00 75 1028.0
20260506084414 61 228 8.0 11.0 0.00 0.00 0.00 75 1028.0
20260506083416 61 230 6.0 8.0 0.00 0.00 0.00 75 1028.1
20260506082514 61 225 5.0 7.0 0.00 0.00 0.00 74 1027.9
20260506081516 61 225 6.0 7.0 0.00 0.00 0.00 74 1027.8
20260506073515 61 232 7.0 9.0 0.00 0.00 0.00 74 1027.5
20260506072516 61 225 7.0 9.0 0.00 0.00 0.00 74 1027.5
20260506070616 61 225 5.0 7.0 0.00 0.00 0.00 73 1027.5
20260506061620 61 239 9.0 12.0 0.00 0.00 0.00 73 1027.2